Location: Shepherdstown, WV
(39.4326°N, 77.8042°W)
Time: 19:31:08
(UTC-04:00)

Vanguard 3 - Pass Details

Date: 30 July 2021
Orbit: 510 x 3260 km, 33.3° (Epoch: 18 September)

Event Time Altitude Azimuth Distance (km) Brightness Sun altitude
Rises 20:31:47 0° 253° (WSW) 5,992 12.4 -2.0°
Reaches altitude 10° 20:35:15 10° 251° (WSW) 5,269 12.0 -2.6°
Maximum altitude 20:52:19 71° 172° (S) 3,328 10.1 -5.5°
Drops below altitude 10° 21:11:50 10° 94° (E) 5,912 11.0 -8.7°
Enters shadow 21:15:48 - 92° (E) 6,683 11.3 -9.4°
